• Join FlightAware (Why Join?)
  • Login
  • US Flag GB Flag 
07:23 EDT


 

Airport Tracker/Info


-or-


 

Live Flight TrackerFlight Track Log ✈ SWA268 ✈ 09-Apr-2013 ✈ KSNA - KLAS

Flight Track Log - Related Links

Times and Time Zones

All times are in EDT time to prevent confusion due to time zone crossing. See the SWA268 flight status page for this flight to view local times or setup timezone preferences in your user account.

Time Position Orientation Groundspeed Altitude Reporting Facility
EDT Latitude Longitude Course Direction KTS MPH feet Rate Location/Type
12:12 33.6514 -117.8831 40° Northeast 155 178 1,400  Level Los Angeles Center
12:13 33.6333 -117.8833 181° South 155 178 2,100 1,200 Climbing Southern California TRACON
12:13 33.6092 -117.8947 201° Southwest 159 183 2,700 1,440 Climbing Los Angeles Center
12:14 33.5569 -117.9139 197° South 198 228 4,600 2,220 Climbing Los Angeles Center
12:15 33.5192 -117.9886 239° Southwest 223 257 7,400 2,940 Climbing Los Angeles Center
12:16 33.5194 -118.0725 270° West 253 291 10,700 2,940 Climbing Los Angeles Center
12:17 33.5697 -118.1381 313° West 280 322 13,500 3,480 Climbing Los Angeles Center
12:18 33.7914 -118.0253 40° Northeast  Level FlightAware Approximate
12:18 33.6425 -118.1086 19° North 278 320 18,000  Level Los Angeles Center
12:19 33.7156 -118.0822 17° North 276 318 20,700 2,940 Climbing Los Angeles Center
12:20 33.8075 -118.0319 24° Northeast 310 357 24,200 3,000 Climbing Los Angeles Center
12:21 33.8786 -117.9681 37° Northeast 323 372 26,800 1,320 Climbing Los Angeles Center
12:23 33.9375 -117.9147 37° Northeast 330 380 27,000 60 Climbing Los Angeles Center
12:24 34.0261 -117.8336 37° Northeast 335 386 27,000  Level Los Angeles Center
12:25 34.1000 -117.7614 39° Northeast 341 392 27,000  Level Los Angeles Center
12:26 34.1628 -117.6744 49° Northeast 345 397 27,000  Level Los Angeles Center
12:27 34.2389 -117.5697 49° Northeast 345 397 27,000  Level Los Angeles Center
12:28 34.3017 -117.4856 48° Northeast 340 391 27,000  Level Los Angeles Center
12:29 34.3664 -117.3989 48° Northeast 345 397 27,000  Level Los Angeles Center
12:30 34.4325 -117.3075 49° Northeast 346 398 27,000  Level Los Angeles Center
12:31 34.4964 -117.2194 49° Northeast 348 400 27,000  Level Los Angeles Center
12:32 34.5603 -117.1322 48° Northeast 348 400 27,000  Level Los Angeles Center
12:33 34.6244 -117.0436 49° Northeast 350 403 27,000  Level Los Angeles Center
12:34 34.7017 -116.9372 49° Northeast 353 406 27,000  Level Los Angeles Center
12:35 34.7661 -116.8475 49° Northeast 354 407 27,000  Level Los Angeles Center
12:36 34.8319 -116.7569 48° Northeast 358 412 27,000  Level Los Angeles Center
12:37 34.8983 -116.6650 49° Northeast 361 415 27,000  Level Los Angeles Center
12:38 34.9656 -116.5722 49° Northeast 367 422 27,000 -660 Level Los Angeles Center
12:39 35.0500 -116.4664 46° Northeast 364 419 25,700 -1,440 Descending Los Angeles Center
12:40 35.1053 -116.3972 46° Northeast 360 414 24,100 -840 Descending Los Angeles Center
12:41 35.1897 -116.2892 46° Northeast 365 420 24,000 -60 Descending Los Angeles Center
12:42 35.2636 -116.2003 44° Northeast 373 429 24,000 -360 Level Los Angeles Center
12:43 35.3331 -116.1097 47° Northeast 368 423 23,300 -1,740 Descending Los Angeles Center
12:44 35.4181 -116.0019 46° Northeast 367 422 20,500 -2,760 Descending Los Angeles Center
12:45 35.4900 -115.9111 46° Northeast 370 426 17,800 -2,520 Descending Los Angeles Center
12:46 35.5494 -115.8394 44° Northeast 375 432 15,900 -1,980 Descending Los Angeles Center
12:46 35.5567 -115.8267 55° Northeast 372 428 15,700 -3,000 Descending Los Angeles Center
12:47 35.5883 -115.7903 43° Northeast 365 420 14,400 -2,400 Descending Los Angeles Center
12:47 35.6356 -115.7250 48° Northeast 349 402 13,300 -1,380 Descending Los Angeles Center
12:48 35.6414 -115.7044 71° East 327 376 13,000 -660 Descending Los Angeles Center
12:48 35.6633 -115.6325 69° East 297 342 12,600 -1,080 Descending Los Angeles Center
12:49 35.6914 -115.5456 68° East 279 321 11,100 -1,440 Descending Los Angeles Center
12:51 35.7253 -115.4422 68° East 268 308 9,500 -1,260 Descending Los Angeles Center
12:51 35.7533 -115.3853 59° Northeast 265 305 8,500 -960 Descending Los Angeles Center
12:53 35.7983 -115.3269 46° Northeast 251 289 7,700 -840 Descending Los Angeles Center
12:54 35.8536 -115.2958 25° Northeast 230 265 6,900 -900 Descending Los Angeles Center
12:55 35.9244 -115.2553 25° Northeast 205 236 5,800 -960 Descending Los Angeles Center
12:56 35.9703 -115.2297 24° Northeast 210 242 5,000 -660 Descending Los Angeles Center
12:57 36.0153 -115.2036 25° Northeast 208 239 4,600 -960 Descending Los Angeles Center
12:58 36.0411 -115.1881 26° Northeast 121 139 3,000 -960 Descending Los Angeles Center
12:59 36.0803 -115.1661 24° Northeast 132 152 2,700 -480 Descending Los Angeles Center
13:00 36.1094 -115.1497 24° Northeast 125 144 2,100 -600 Descending Los Angeles Center